Greenville, AL

7:13 AM CST on December 18, 2017 (GMT -0600)
Greenville Municipal

Weather History for KPRN - October, 2013

Change the Weather History Date:

Thursday, October 17, 2013

  Actual Average Record
Temperature  
Mean Temperature 71 °F -  
Max Temperature 78 °F 78 °F 91 °F (2016)
Min Temperature 64 °F 53 °F 32 °F (1977)
Cooling Degree Days 6    
Growing Degree Days 21 (Base 50)    
Moisture  
Dew Point 67 °F    
Average Humidity 89    
Maximum Humidity 94    
Minimum Humidity 74    
Precipitation  
Precipitation 0.23 in - - ()
Sea Level Pressure  
Sea Level Pressure 29.93 in    
Wind  
Wind Speed 5 mph (WNW)    
Max Wind Speed 13 mph    
Max Gust Speed 17 mph    
Visibility 8 miles    
Events Rain    
Averages and records for this station are not official NWS values.
T = Trace of Precipitation, MM = Missing Value Source: NWS Daily Summary

Daily Weather History Graph

Daily Weather History Graph

Search for Another Location

Airport or City:

Trip Planner

Search our weather history database for the weather conditions in past years. The results will help you decide how hot, cold, wet, or windy it might be!

Date:

Astronomy

Oct. 17, 2013 Rise Set
Actual Time 6:51 AM CDT 6:11 PM CDT
Civil Twilight 6:26 AM CDT 6:36 PM CDT
Nautical Twilight 5:58 AM CDT 7:04 PM CDT
Astronomical Twilight 5:30 AM CDT 7:32 PM CDT
Moon 5:23 PM CDT (10/17) 5:26 AM CDT (10/17)
Length of Visible Light 12h 09m
Length of Day
11h 20m
Waxing Gibbous, 98% of the Moon is Illuminated
Oct 17
Waxing Gibbous
Oct 18
Full
Oct 26
Last Quarter
Nov 3
New
Nov 9
First Quarter

Hourly Weather History & Observations

Time (CDT) Temp. Dew Point Humidity Pressure Visibility Wind Dir Wind Speed Gust Speed Precip Events Conditions
12:56 AM 66.9 °F 64.0 °F 90% 29.94 in 10.0 mi Calm Calm - N/A   Partly Cloudy
1:56 AM 68.0 °F 64.9 °F 90% 29.94 in 10.0 mi SSW 3.5 mph - N/A   Mostly Cloudy
2:56 AM 68.0 °F 66.0 °F 93% 29.93 in 10.0 mi Calm Calm - N/A   Mostly Cloudy
3:56 AM 66.0 °F 64.0 °F 93% 29.92 in 6.0 mi Calm Calm - N/A   Clear
4:56 AM 64.9 °F 63.0 °F 93% 29.92 in 3.0 mi Calm Calm - N/A   Scattered Clouds
5:56 AM 66.9 °F 64.9 °F 93% 29.94 in 7.0 mi SSW 3.5 mph - N/A   Overcast
6:56 AM 66.9 °F 64.9 °F 93% 29.93 in 7.0 mi South 3.5 mph - N/A   Overcast
7:56 AM 68.0 °F 66.0 °F 93% 29.94 in 7.0 mi South 3.5 mph - N/A   Overcast
8:56 AM 70.0 °F 66.9 °F 90% 29.96 in 10.0 mi South 3.5 mph - N/A   Overcast
9:56 AM 73.9 °F 68.0 °F 82% 29.96 in 10.0 mi Variable 4.6 mph - 0.00 in   Overcast
10:56 AM 75.9 °F 70.0 °F 82% 29.95 in 10.0 mi SSW 5.8 mph - 0.00 in Rain Light Rain
11:40 AM 75.2 °F 69.8 °F 83% 29.96 in 10.0 mi WSW 4.6 mph - 0.00 in   Overcast
11:56 AM 77.0 °F 70.0 °F 79% 29.94 in 10.0 mi SW 8.1 mph - 0.00 in   Overcast
12:20 PM 78.8 °F 69.8 °F 74% 29.94 in 10.0 mi SW 8.1 mph - N/A   Overcast
12:56 PM 77.0 °F 70.0 °F 79% 29.92 in 7.0 mi West 12.7 mph 17.3 mph 0.02 in Rain Light Rain
12:58 PM 75.2 °F 69.8 °F 83% 29.93 in 1.5 mi WNW 11.5 mph 17.3 mph 0.12 in Rain Rain
1:01 PM 73.4 °F 71.6 °F 94% 29.93 in 0.8 mi NW 10.4 mph 17.3 mph 0.20 in Rain Heavy Rain
1:08 PM 73.4 °F 71.6 °F 94% 29.93 in 1.0 mi WNW 10.4 mph 17.3 mph 0.21 in Rain Light Rain
1:11 PM 73.4 °F 71.6 °F 94% 29.93 in 3.0 mi WNW 8.1 mph 17.3 mph 0.21 in Rain Light Rain
1:19 PM 73.4 °F 71.6 °F 94% 29.92 in 10.0 mi NW 6.9 mph - 0.21 in   Overcast
1:24 PM 73.4 °F 71.6 °F 94% 29.92 in 10.0 mi NW 5.8 mph - 0.21 in   Overcast
1:32 PM 73.4 °F 69.8 °F 88% 29.92 in 10.0 mi NNW 6.9 mph - 0.21 in   Overcast
1:46 PM 75.2 °F 71.6 °F 89% 29.91 in 10.0 mi NW 5.8 mph - 0.21 in   Overcast
1:56 PM 77.0 °F 71.1 °F 82% 29.90 in 10.0 mi WNW 11.5 mph - 0.21 in   Overcast
2:07 PM 75.2 °F 69.8 °F 83% 29.91 in 10.0 mi NW 8.1 mph - N/A   Mostly Cloudy
2:48 PM 73.4 °F 69.8 °F 88% 29.91 in 10.0 mi Variable 5.8 mph - N/A   Overcast
2:56 PM 73.9 °F 69.1 °F 85% 29.90 in 10.0 mi WNW 4.6 mph - N/A   Overcast
3:14 PM 71.6 °F 69.8 °F 94% 29.92 in 7.0 mi NW 8.1 mph 16.1 mph 0.00 in Rain Light Rain
3:23 PM 71.6 °F 68.0 °F 88% 29.92 in 7.0 mi WNW 6.9 mph - 0.00 in Rain Light Rain
3:32 PM 71.6 °F 68.0 °F 88% 29.91 in 10.0 mi NW 4.6 mph - 0.00 in   Overcast
3:47 PM 73.4 °F 69.8 °F 88% 29.91 in 10.0 mi NW 6.9 mph - 0.00 in   Overcast
3:56 PM 72.0 °F 69.1 °F 91% 29.90 in 10.0 mi NNW 4.6 mph - 0.00 in   Overcast
4:42 PM 71.6 °F 66.2 °F 83% 29.92 in 10.0 mi NW 3.5 mph - N/A   Overcast
4:56 PM 72.0 °F 66.9 °F 84% 29.91 in 10.0 mi NNW 4.6 mph - N/A   Overcast
5:43 PM 71.6 °F 66.2 °F 83% 29.93 in 10.0 mi NNW 5.8 mph - N/A   Overcast
5:56 PM 70.0 °F 66.0 °F 87% 29.92 in 10.0 mi NNW 5.8 mph - N/A   Overcast
6:32 PM 69.8 °F 66.2 °F 88% 29.94 in 10.0 mi Variable 4.6 mph - N/A   Overcast
6:42 PM 69.8 °F 66.2 °F 88% 29.94 in 10.0 mi NW 3.5 mph - N/A   Overcast
6:56 PM 69.1 °F 64.9 °F 87% 29.93 in 10.0 mi NNW 9.2 mph - N/A   Overcast
7:43 PM 66.2 °F 64.4 °F 94% 29.96 in 5.0 mi NNW 6.9 mph - N/A   Overcast
7:56 PM 66.9 °F 64.9 °F 93% 29.95 in 4.0 mi NNW 6.9 mph - N/A   Overcast
8:08 PM 66.2 °F 64.4 °F 94% 29.96 in 6.0 mi NNW 6.9 mph - N/A   Overcast
8:23 PM 66.2 °F 64.4 °F 94% 29.97 in 8.0 mi NNW 5.8 mph - N/A   Overcast
8:56 PM 66.0 °F 64.0 °F 93% 29.96 in 5.0 mi NW 5.8 mph - N/A   Overcast
9:26 PM 66.2 °F 64.4 °F 94% 29.97 in 10.0 mi NW 6.9 mph - N/A   Overcast
9:56 PM 66.0 °F 63.0 °F 90% 29.97 in 10.0 mi NW 3.5 mph - N/A   Overcast
10:56 PM 64.9 °F 63.0 °F 93% 29.96 in 10.0 mi NNW 5.8 mph - N/A   Overcast
11:56 PM 64.9 °F 62.1 °F 90% 29.95 in 10.0 mi NNW 5.8 mph - N/A   Overcast